Temp
8 8 8 8 8 8 9 10 10 10 10 10 10 10 10 9 9 8 6 7 8 7 8 8 8 8 8 8 10 7 7 6 7 6 7 8 6 8 6 8 7 6 5 5 5 4 4 10 8 6 7 7 7 5
7 7 7 7 7 7 7 8 9 10 10 10 9 10 9 9 9 8 5 5 6 6 7 7 7 6 7 7 8 6 8 8 8 7 7 6 5 5 5 4 8 5 7 5 5 5 8 8 8 8 7 6 5 4
7 7 6 6 7 7 7 7 7 7 8 8 8 8 10 9 8 8 7 6 5 4 5 5 5 6 6 6 6 6 7 7 7 6 6 6 4 6 4 6 7 8 9 5 5 7 7 7 7 7 6 5 3 3
7 7 7 6 5 6 6 6 6 7 7 7 7 7 6 8 7 6 6 5 3 3 4 6 6 6 5 5 4 5 5 5 5 5 5 3 3 5 4 6 5 6 6 5 5 6 7 7 7 5 3 3 2 2
6 6 6 6 5 5 6 6 6 6 5 5 4 4 5 4 4 6 4 5 2 2 4 4 6 5 4 4 4 3 4 4 4 4 3 2 4 4 5 4 3 5 5 5 5 7 6 5 4 3 2 2 1 1
6 6 6 6 6 5 5 5 5 5 5 3 4 3 2 3 3 3 3 3 2 1 1 2 4 3 4 3 3 3 3 3 3 3 1 2 3 2 1 2 6 7 7 7 6 6 4 3 2 2 2 2 1 0
4 5 5 5 5 5 5 4 4 5 5 4 3 3 2 1 1 3 3 2 3 2 1 2 3 4 3 2 2 3 3 3 3 1 -0 1 3 3 1 2 5 5 5 5 5 5 3 2 2 2 1 0 -1 -1
3 2 3 3 4 4 4 3 4 4 5 4 3 3 2 1 1 1 1 1 1 1 1 2 2 4 2 2 3 3 3 2 1 1 0 2 2 2 1 3 4 5 6 4 4 3 3 2 1 0 -1 -2 -2 -2
1 1 1 1 1 2 3 3 4 4 4 4 3 2 1 1 0 1 1 1 1 1 1 -0 1 3 2 3 3 2 2 0 1 -0 1 3 2 1 3 4 4 5 4 3 3 2 2 1 -1 -1 -2 -3 -3 -3
1 1 1 1 1 1 2 2 3 3 3 3 2 1 1 1 1 1 1 1 0 1 0 1 2 3 3 3 2 2 2 1 2 2 2 2 2 4 4 4 5 4 3 3 2 1 -0 -1 -2 -2 -3 -3 -3 -4
1 1 1 1 1 1 2 2 2 3 3 3 2 1 1 0 0 0 0 0 0 0 0 0 2 3 2 2 3 3 2 3 2 4 3 3 3 5 5 5 5 4 3 2 1 0 -1 -2 -3 -3 -3 -3 -4 -4
0 1 1 1 1 1 1 2 2 2 3 2 2 1 0 -0 -0 -0 1 1 1 2 2 1 0 3 1 3 3 2 2 3 2 4 3 2 5 7 6 4 3 3 2 1 -0 -1 -2 -3 -3 -3 -3 -4 -4 -4
0 0 1 1 1 1 1 2 2 2 1 1 0 -0 -0 -1 0 1 1 2 2 2 3 1 1 0 0 2 2 1 1 2 4 2 3 4 5 4 4 3 3 2 1 0 -1 -2 -3 -3 -3 -4 -4 -4 -4 -4
1 0 0 0 1 1 1 2 2 1 1 0 -1 -1 1 -0 1 3 4 6 4 4 2 1 0 1 1 0 2 1 2 3 2 2 3 4 5 4 3 2 2 1 1 -1 -2 -3 -3 -3 -4 -4 -4 -4 -4 -5
1 1 0 0 1 1 1 1 1 0 1 -0 -1 1 0 3 4 5 6 7 6 3 2 1 0 0 -0 0 1 2 2 1 2 3 4 7 5 4 3 2 2 1 -0 -1 -2 -3 -3 -4 -4 -4 -4 -4 -4 -4
1 0 0 0 1 1 1 0 0 0 1 -1 -1 0 2 4 5 7 7 5 3 2 1 2 1 1 1 1 1 1 1 1 3 3 6 6 4 3 2 2 1 0 -1 -2 -3 -3 -4 -4 -4 -4 -4 -4 -4 -4
0 0 1 0 0 0 1 -0 -0 0 -0 -2 -1 -0 3 6 6 6 6 3 2 1 2 2 1 2 3 2 2 2 2 3 5 6 6 5 4 3 2 2 1 -0 -2 -3 -3 -3 -3 -4 -4 -4 -4 -4 -4 -4
0 0 0 1 0 -0 -0 -0 -0 -1 -2 -0 0 2 3 4 6 8 6 3 2 2 3 3 3 2 1 1 1 3 4 5 5 5 5 4 3 2 1 1 -0 -1 -2 -3 -3 -3 -3 -4 -4 -4 -4 -4 -4 -4
0 1 0 0 -0 -0 -0 -0 -0 -2 -1 -0 1 2 4 5 5 6 4 2 3 2 4 3 2 3 4 5 5 6 5 4 4 4 4 3 2 1 1 0 -1 -2 -2 -3 -3 -3 -4 -4 -4 -4 -4 -4 -5 -4
0 0 1 0 -0 -0 -1 -1 -1 -1 -1 0 2 3 3 4 5 5 3 2 2 2 2 1 3 5 6 6 6 6 5 5 4 4 3 2 1 1 0 -1 -1 -2 -2 -3 -3 -3 -4 -4 -4 -4 -4 -5 -5 -4
0 0 0 -0 0 -0 -0 -2 -2 -1 0 2 3 1 -0 1 1 2 2 1 2 0 2 3 4 5 6 6 5 4 5 4 4 4 3 2 1 1 -0 -1 -2 -2 -3 -3 -3 -4 -4 -4 -4 -4 -4 -4 -4 -4
0 0 -0 -0 -1 -1 -1 -1 -1 -1 -1 -0 2 1 -0 -0 -0 0 0 -0 -0 1 2 3 4 4 5 4 4 4 4 3 3 2 2 1 1 -0 -1 -1 -2 -3 -3 -3 -3 -4 -4 -4 -4 -4 -4 -5 -4 -4
-0 -0 -1 -1 -1 -2 -2 -2 -1 -2 -0 -0 -1 -0 -0 -0 0 1 -0 -0 1 2 2 3 3 4 4 4 3 3 3 2 1 1 0 0 0 -0 -2 -2 -3 -3 -3 -3 -4 -4 -4 -4 -4 -5 -5 -4 -4 -4
-0 -0 -1 -2 -1 -1 -2 -2 -1 -1 -1 -0 0 0 -0 -0 -1 -1 0 2 2 2 3 3 3 3 2 2 2 2 2 1 0 0 -1 -1 -1 -2 -2 -3 -3 -4 -3 -3 -4 -4 -5 -4 -4 -4 -5 -5 -5 -5
-1 -2 -2 -1 -2 -1 -1 -1 -0 -0 -0 -0 0 -0 -1 -2 -1 -0 1 2 3 3 3 3 3 2 2 2 2 2 2 1 0 -1 -1 -2 -2 -2 -3 -3 -4 -4 -3 -4 -4 -5 -4 -5 -5 -5 -5 -5 -5 -5
-1 -2 -1 -1 -0 0 0 -1 -0 1 1 0 0 -2 -2 -1 -1 -0 1 3 3 4 3 3 2 1 1 1 1 1 1 0 -0 -1 -1 -2 -2 -3 -3 -4 -4 -4 -4 -4 -4 -5 -5 -5 -5 -5 -5 -5 -5 -6
-1 -1 -1 0 1 1 1 2 2 1 0 -0 -1 -1 -1 -1 -1 0 2 2 2 3 3 3 2 1 1 0 0 0 -0 -1 -1 -2 -2 -2 -3 -3 -4 -4 -4 -4 -4 -4 -5 -5 -5 -5 -5 -6 -6 -6 -6 -6
-1 -1 -0 0 1 1 0 1 1 1 -0 -1 -1 -1 -1 0 1 1 1 1 0 0 1 1 0 -0 -1 -1 -1 -1 -1 -2 -3 -3 -3 -3 -4 -4 -4 -4 -4 -4 -4 -5 -5 -5 -5 -5 -6 -6 -6 -6 -5 -5
-0 0 0 -2 -0 0 0 1 1 2 1 -0 0 0 1 0 -1 -0 -0 -1 -1 -1 -0 -1 -3 -3 -3 -3 -3 -3 -3 -3 -3 -4 -4 -5 -5 -5 -5 -5 -5 -5 -5 -5 -5 -4 -5 -5 -5 -5 -5 -5 -5 -5
-0 1 0 0 -1 -0 -2 -2 -2 -1 -0 1 -0 -1 -2 -2 -2 -1 -2 -2 -2 -2 -3 -4 -4 -4 -4 -4 -4 -4 -4 -4 -4 -4 -5 -5 -5 -4 -5 -5 -6 -5 -5 -5 -5 -5 -5 -5 -5 -5 -6 -6 -6 -6
-1 -1 -1 -1 -2 -3 -3 -3 -3 -2 -2 -2 -1 -0 -2 -3 -3 -3 -3 -3 -3 -2 -3 -4 -4 -4 -4 -4 -4 -4 -5 -4 -4 -5 -5 -5 -5 -4 -5 -5 -5 -6 -6 -5 -6 -5 -6 -6 -6 -7 -7 -7 -7 -7
-1 -1 -1 -2 -3 -4 -3 -3 -2 -2 -2 -2 -2 -2 -2 -2 -3 -3 -3 -3 -3 -4 -4 -4 -4 -4 -4 -5 -5 -5 -5 -5 -5 -5 -5 -5 -5 -5 -5 -5 -6 -6 -6 -6 -6 -6 -6 -6 -7 -7 -7 -7 -7 -7
-2 -2 -2 -2 -3 -3 -3 -2 -2 -2 -2 -2 -2 -2 -2 -2 -2 -4 -4 -4 -4 -5 -5 -4 -4 -4 -4 -5 -6 -6 -6 -5 -5 -5 -5 -5 -5 -5 -5 -5 -6 -6 -6 -6 -6 -7 -7 -8 -7 -7 -8 -8 -8 -7
Height
1565 1565 1564 1564 1563 1563 1562 1561 1561 1561 1562 1562 1561 1561 1560 1558 1557 1556 1555 1554 1555 1555 1553 1552 1553 1554 1555 1555 1554 1559 1562 1562 1562 1562 1559 1556 1558 1552 1554 1546 1547 1551 1553 1548 1542 1545 1538 1510 1510 1520 1509 1498 1496 1491
1557 1559 1559 1559 1560 1559 1559 1558 1558 1558 1559 1559 1560 1560 1559 1559 1558 1557 1557 1555 1554 1553 1551 1548 1548 1550 1553 1554 1554 1555 1556 1556 1557 1557 1555 1556 1558 1556 1554 1554 1540 1546 1536 1539 1537 1525 1510 1511 1510 1506 1503 1496 1493 1490
1549 1550 1551 1553 1554 1554 1555 1554 1554 1555 1554 1554 1555 1557 1556 1556 1556 1556 1555 1553 1553 1553 1548 1546 1544 1545 1547 1549 1551 1553 1553 1555 1556 1556 1556 1556 1556 1551 1552 1541 1534 1529 1527 1527 1526 1510 1511 1509 1505 1501 1498 1493 1487 1484
1542 1542 1543 1544 1546 1548 1549 1549 1550 1551 1550 1550 1550 1550 1551 1550 1551 1552 1553 1553 1555 1559 1554 1546 1543 1541 1541 1543 1546 1548 1550 1552 1554 1555 1555 1556 1557 1550 1544 1538 1534 1531 1528 1519 1514 1509 1505 1504 1501 1496 1491 1487 1483 1477
1534 1535 1535 1536 1538 1539 1541 1543 1544 1545 1545 1545 1545 1546 1546 1547 1548 1548 1549 1550 1552 1561 1556 1545 1539 1539 1538 1540 1543 1545 1548 1550 1553 1555 1554 1555 1552 1548 1540 1536 1522 1520 1516 1515 1509 1504 1501 1498 1496 1493 1488 1482 1477 1470
1525 1526 1527 1528 1529 1531 1533 1534 1537 1539 1541 1541 1541 1543 1544 1544 1544 1546 1547 1548 1549 1554 1558 1548 1537 1533 1534 1537 1540 1542 1544 1548 1550 1550 1552 1550 1549 1550 1542 1529 1506 1507 1506 1505 1502 1500 1498 1495 1493 1489 1483 1477 1471 1465
1515 1516 1517 1519 1520 1522 1524 1527 1529 1531 1534 1536 1537 1538 1540 1542 1542 1543 1547 1547 1547 1551 1557 1547 1536 1533 1532 1534 1536 1538 1541 1544 1546 1547 1545 1544 1544 1545 1534 1517 1498 1502 1502 1500 1499 1494 1492 1493 1487 1483 1477 1470 1465 1459
1505 1506 1508 1509 1511 1512 1515 1518 1521 1524 1528 1529 1532 1534 1536 1538 1539 1539 1541 1545 1547 1549 1552 1547 1537 1532 1530 1532 1533 1534 1538 1540 1541 1540 1538 1537 1537 1535 1521 1496 1496 1495 1494 1493 1492 1493 1492 1487 1482 1477 1472 1465 1458 1451
1495 1497 1499 1500 1502 1504 1506 1509 1513 1517 1521 1524 1527 1530 1532 1533 1533 1533 1538 1541 1544 1548 1544 1539 1532 1526 1527 1529 1531 1533 1534 1538 1535 1531 1530 1531 1522 1511 1490 1491 1491 1491 1489 1489 1488 1488 1486 1482 1478 1473 1468 1462 1456 1448
1485 1487 1489 1492 1494 1496 1499 1501 1505 1510 1515 1519 1519 1523 1523 1522 1527 1532 1536 1537 1537 1535 1532 1521 1519 1519 1522 1524 1528 1531 1531 1530 1525 1518 1519 1516 1498 1489 1482 1483 1485 1485 1485 1485 1483 1481 1479 1477 1474 1470 1465 1460 1454 1446
1476 1477 1480 1482 1485 1489 1491 1494 1498 1504 1508 1503 1507 1512 1515 1519 1524 1528 1531 1528 1525 1522 1514 1508 1509 1511 1517 1521 1522 1524 1524 1521 1518 1507 1509 1496 1480 1471 1471 1475 1478 1479 1481 1481 1481 1479 1477 1475 1471 1465 1460 1456 1451 1444
1465 1467 1470 1472 1475 1480 1483 1487 1490 1494 1493 1491 1493 1501 1509 1514 1514 1521 1518 1511 1504 1497 1492 1494 1498 1504 1509 1513 1515 1518 1518 1515 1510 1504 1506 1490 1468 1464 1467 1471 1474 1476 1477 1477 1475 1474 1472 1470 1467 1462 1458 1453 1448 1442
1453 1456 1459 1462 1466 1470 1474 1478 1481 1486 1487 1483 1484 1485 1488 1499 1500 1498 1492 1485 1483 1479 1480 1484 1492 1499 1506 1509 1510 1513 1514 1509 1502 1500 1487 1470 1464 1463 1465 1469 1470 1472 1473 1472 1470 1469 1468 1466 1463 1459 1454 1450 1445 1439
1440 1443 1447 1451 1454 1458 1463 1468 1474 1479 1480 1473 1471 1473 1466 1472 1465 1449 1447 1452 1461 1464 1470 1479 1485 1491 1499 1504 1505 1505 1502 1497 1493 1487 1469 1456 1456 1459 1462 1464 1467 1468 1469 1467 1466 1464 1463 1461 1458 1455 1451 1447 1442 1437
1426 1431 1435 1436 1442 1447 1453 1459 1464 1467 1467 1460 1459 1449 1449 1438 1440 1438 1442 1446 1449 1457 1464 1475 1482 1486 1493 1497 1497 1496 1492 1487 1477 1464 1453 1449 1451 1455 1459 1460 1462 1463 1463 1462 1461 1460 1459 1456 1454 1450 1447 1444 1441 1435
1413 1419 1417 1425 1430 1436 1442 1448 1453 1453 1449 1446 1441 1437 1431 1432 1433 1435 1439 1442 1444 1455 1465 1468 1475 1479 1478 1481 1485 1479 1474 1464 1453 1447 1445 1446 1448 1452 1454 1456 1457 1457 1457 1456 1456 1455 1454 1452 1450 1447 1444 1441 1438 1434
1400 1397 1405 1412 1419 1426 1433 1439 1440 1436 1429 1431 1430 1428 1427 1423 1424 1428 1431 1434 1444 1450 1452 1459 1461 1459 1462 1467 1463 1460 1453 1441 1438 1440 1440 1441 1443 1447 1449 1451 1452 1452 1451 1451 1451 1451 1450 1448 1446 1444 1441 1438 1436 1432
1381 1386 1394 1401 1409 1416 1420 1424 1423 1421 1419 1415 1420 1415 1416 1419 1421 1418 1421 1425 1434 1442 1445 1445 1447 1447 1446 1447 1442 1434 1430 1433 1435 1436 1437 1439 1442 1444 1444 1445 1446 1446 1446 1446 1446 1446 1445 1444 1442 1440 1438 1436 1433 1430
1367 1376 1384 1391 1398 1404 1405 1408 1411 1408 1408 1408 1404 1405 1410 1409 1412 1417 1416 1419 1424 1430 1433 1437 1437 1429 1423 1421 1421 1422 1423 1425 1428 1430 1433 1434 1436 1437 1438 1440 1441 1441 1441 1441 1442 1442 1441 1440 1438 1437 1435 1433 1431 1428
1360 1366 1373 1379 1386 1388 1392 1394 1397 1398 1397 1397 1397 1397 1401 1403 1405 1408 1411 1416 1419 1424 1425 1422 1414 1410 1409 1411 1413 1416 1418 1420 1422 1424 1425 1428 1430 1432 1433 1434 1435 1435 1436 1436 1437 1437 1437 1436 1435 1433 1432 1430 1429 1426
1349 1354 1363 1369 1375 1376 1378 1379 1383 1385 1387 1387 1385 1390 1394 1395 1399 1401 1403 1406 1409 1407 1405 1401 1401 1402 1406 1406 1408 1409 1412 1414 1414 1416 1418 1420 1422 1425 1427 1428 1428 1429 1430 1431 1432 1432 1432 1431 1431 1429 1429 1427 1427 1424
1335 1347 1354 1358 1361 1366 1369 1370 1373 1376 1383 1380 1382 1386 1390 1392 1395 1397 1398 1398 1394 1391 1391 1393 1392 1397 1400 1402 1402 1402 1403 1407 1409 1411 1413 1415 1417 1418 1419 1420 1422 1423 1424 1426 1427 1427 1428 1427 1427 1426 1425 1425 1424 1422
1333 1339 1346 1350 1357 1361 1361 1365 1369 1371 1377 1377 1380 1382 1383 1383 1385 1390 1390 1386 1380 1379 1382 1383 1385 1388 1390 1392 1395 1396 1396 1399 1402 1404 1406 1408 1410 1412 1413 1414 1415 1417 1419 1420 1422 1423 1423 1423 1423 1422 1422 1422 1421 1419
1328 1333 1337 1341 1347 1352 1358 1362 1365 1367 1371 1374 1375 1377 1378 1379 1381 1381 1377 1370 1368 1372 1373 1373 1376 1378 1381 1384 1385 1386 1388 1389 1393 1397 1400 1402 1403 1405 1407 1409 1410 1411 1414 1416 1417 1418 1418 1419 1419 1419 1419 1419 1417 1415
1323 1330 1333 1337 1341 1347 1352 1357 1360 1363 1364 1367 1368 1371 1374 1377 1377 1374 1363 1357 1361 1359 1361 1365 1368 1368 1369 1373 1377 1379 1381 1382 1385 1389 1393 1396 1398 1400 1402 1404 1405 1407 1409 1411 1412 1413 1414 1415 1415 1415 1416 1415 1414 1412
1318 1324 1325 1327 1334 1338 1343 1349 1352 1353 1357 1361 1363 1366 1371 1371 1370 1362 1355 1352 1354 1354 1354 1356 1358 1360 1363 1366 1369 1370 1373 1376 1379 1383 1387 1389 1392 1394 1396 1398 1400 1402 1404 1407 1408 1409 1410 1410 1411 1411 1411 1410 1409 1408
1317 1320 1321 1320 1323 1327 1334 1340 1343 1347 1352 1354 1358 1363 1364 1363 1359 1351 1346 1346 1346 1347 1349 1352 1354 1355 1357 1360 1362 1365 1367 1371 1374 1377 1381 1384 1387 1390 1391 1393 1394 1397 1401 1403 1404 1405 1406 1406 1406 1406 1406 1406 1405 1403
1312 1315 1316 1320 1324 1328 1331 1334 1337 1341 1344 1346 1352 1353 1351 1350 1344 1342 1344 1345 1345 1347 1347 1348 1350 1351 1353 1355 1358 1361 1364 1368 1372 1374 1377 1381 1383 1385 1387 1389 1392 1395 1397 1398 1400 1400 1401 1401 1401 1402 1402 1401 1400 1399
1311 1311 1315 1322 1326 1327 1328 1330 1331 1332 1333 1337 1340 1341 1342 1341 1342 1342 1343 1344 1345 1345 1344 1345 1347 1349 1351 1354 1357 1359 1362 1365 1368 1371 1374 1377 1379 1381 1383 1386 1388 1390 1392 1394 1395 1396 1397 1397 1398 1398 1398 1397 1396 1395
1314 1314 1318 1321 1324 1326 1329 1329 1330 1332 1333 1335 1337 1339 1340 1341 1341 1342 1343 1344 1343 1344 1344 1345 1346 1349 1351 1353 1356 1360 1362 1365 1367 1370 1372 1373 1375 1378 1381 1383 1384 1386 1388 1390 1391 1392 1393 1393 1393 1393 1393 1393 1392 1391
1313 1315 1319 1323 1327 1330 1331 1331 1332 1333 1334 1336 1337 1338 1339 1340 1341 1341 1342 1342 1343 1342 1344 1347 1348 1349 1352 1354 1356 1359 1361 1363 1365 1367 1369 1372 1374 1376 1379 1381 1383 1384 1385 1386 1388 1388 1389 1389 1389 1390 1390 1390 1388 1387
1315 1317 1320 1325 1331 1332 1332 1333 1334 1335 1336 1337 1338 1339 1340 1340 1341 1341 1341 1342 1342 1344 1346 1348 1349 1350 1352 1354 1356 1357 1358 1360 1362 1364 1367 1369 1372 1374 1376 1378 1379 1380 1382 1383 1383 1384 1384 1385 1385 1386 1386 1385 1384 1383
1319 1320 1321 1325 1329 1331 1333 1334 1335 1336 1337 1337 1338 1339 1339 1339 1340 1342 1341 1341 1343 1344 1346 1347 1348 1349 1351 1352 1354 1355 1356 1357 1359 1361 1363 1366 1368 1371 1373 1374 1375 1377 1378 1378 1379 1380 1380 1381 1381 1381 1381 1380 1380 1379
Wind_Speed
23 21 21 21 21 20 19 19 19 18 16 17 16 13 11 9 7 7 9 10 6 2 6 8 6 4 3 5 2 6 3 4 5 2 1 2 2 1 3 4 3 3 3 3 5 8 12 2 21 13 23 36 36 26
27 27 24 23 23 23 21 19 19 16 12 13 16 19 16 14 11 7 4 10 11 4 7 11 13 16 11 7 5 9 2 3 5 3 2 1 2 3 3 3 5 4 7 3 5 6 21 33 30 33 36 24 28 31
26 26 27 26 23 23 23 21 18 16 12 8 7 11 17 15 13 14 12 10 11 8 10 8 5 10 21 19 13 4 6 5 3 5 4 2 3 2 3 5 9 7 10 7 10 8 17 29 38 29 32 30 32 36
26 27 27 26 29 27 23 23 22 19 18 14 10 11 12 15 13 12 13 12 9 8 6 4 8 11 9 18 19 14 5 4 6 4 5 1 2 7 3 7 10 13 14 9 13 21 31 24 26 24 31 35 35 35
29 28 28 29 27 27 30 25 24 24 22 21 18 18 17 16 17 19 11 10 7 5 6 9 15 13 9 11 17 15 13 11 6 6 2 2 5 7 9 10 12 18 10 7 10 19 17 22 26 28 31 33 40 42
33 31 30 29 29 31 26 28 28 23 25 23 24 20 17 14 9 3 3 2 5 10 4 4 4 5 10 17 17 15 14 16 16 6 4 7 14 7 3 4 11 19 19 15 18 23 22 26 26 32 36 36 34 40
35 35 32 30 29 28 30 31 29 27 26 25 23 21 13 13 11 8 4 4 4 7 3 7 6 5 9 5 7 14 14 12 14 5 7 8 12 9 3 10 16 24 28 30 25 18 22 24 31 31 34 38 38 37
35 33 32 31 30 28 26 28 27 26 25 26 24 19 15 14 14 19 17 8 5 4 4 4 5 5 10 7 7 11 10 11 7 7 5 6 9 12 6 13 13 16 15 11 10 16 21 29 31 33 31 36 38 39
35 32 31 29 28 27 27 27 26 25 27 26 22 17 17 20 16 17 14 13 11 9 5 7 3 2 9 6 5 9 8 3 8 9 8 7 5 9 15 18 18 18 5 11 14 19 22 24 26 28 33 34 33 37
33 32 31 29 28 25 25 24 29 23 24 29 26 14 9 9 17 8 10 8 12 11 12 7 14 3 11 9 6 7 5 2 3 6 8 4 8 23 32 28 17 11 8 11 16 20 21 22 24 29 30 30 33 35
32 31 31 31 28 26 25 22 23 27 25 32 22 11 11 16 16 10 7 9 11 6 9 9 23 8 11 6 5 9 3 4 3 4 4 4 4 17 25 25 21 13 8 11 13 16 18 20 24 28 31 30 31 33
35 34 31 30 31 30 26 24 23 29 26 34 26 24 24 9 7 6 5 7 8 7 13 12 12 23 9 8 6 6 3 3 5 7 3 4 4 11 15 14 10 8 10 12 13 15 17 19 22 24 26 27 29 31
37 36 34 33 32 31 29 27 25 26 29 29 19 13 13 10 7 9 12 6 6 7 13 17 9 12 7 8 4 4 6 6 3 3 4 4 6 14 14 12 9 10 10 12 15 13 14 17 20 20 23 24 26 28
39 37 35 35 33 33 32 29 28 27 29 11 11 7 8 7 9 9 9 7 13 16 27 27 12 8 7 6 4 4 5 3 4 5 6 4 20 18 16 12 10 10 11 13 12 12 14 17 19 20 21 23 23 26
39 37 35 37 35 33 33 31 29 32 30 10 7 6 9 19 12 14 22 15 16 32 35 18 7 6 4 4 3 4 5 6 6 5 3 7 18 18 17 12 10 12 12 12 11 11 13 16 17 20 20 20 21 22
40 37 42 37 35 33 33 32 32 34 17 9 7 4 14 14 17 18 20 17 24 31 23 8 5 5 5 5 8 9 4 8 4 5 12 14 17 17 14 12 12 13 12 11 11 11 13 14 15 17 17 18 20 21
37 44 40 36 35 33 30 31 30 17 12 9 8 24 25 18 17 22 20 21 31 30 5 6 8 9 5 4 6 6 5 5 12 11 13 16 18 18 14 13 13 13 12 10 10 11 13 13 12 16 16 18 19 18
41 43 37 34 33 31 31 35 15 9 8 17 9 24 22 25 25 16 25 35 28 18 14 6 7 6 7 7 5 6 18 17 13 10 12 15 17 17 14 13 13 14 12 10 11 13 13 12 13 14 15 15 17 18
41 39 37 36 32 32 13 18 21 7 15 9 23 25 21 24 26 22 27 36 30 30 9 11 5 5 5 7 12 11 17 19 19 16 15 15 18 16 14 14 15 14 12 12 12 13 13 12 12 14 13 13 14 15
37 37 39 36 36 21 11 9 13 10 11 12 17 23 27 29 27 25 28 39 28 18 8 6 6 13 14 22 17 16 16 15 18 16 20 22 19 16 16 17 16 13 12 13 14 13 12 11 11 11 9 11 12 14
37 37 36 33 37 25 11 10 9 8 7 12 22 13 3 14 16 20 20 33 19 9 6 22 29 30 25 18 18 19 20 20 23 25 21 20 19 18 17 17 15 14 15 15 15 13 12 11 11 8 9 11 11 13
28 34 28 35 11 12 8 14 9 10 7 3 15 18 8 8 10 18 21 16 9 23 27 30 26 25 23 24 23 23 25 24 22 21 19 19 20 20 20 17 14 15 15 15 14 14 13 11 10 8 8 9 11 11
25 32 20 11 7 8 4 20 6 11 5 7 12 5 2 4 16 22 9 12 21 27 32 28 23 24 29 29 29 28 25 25 23 23 24 24 22 19 17 16 16 17 16 15 14 13 11 10 9 7 7 9 12 12
24 17 8 7 5 4 12 5 5 7 6 5 6 3 4 4 15 5 4 15 21 23 29 30 28 31 28 29 27 25 25 27 24 22 25 24 21 20 18 15 16 15 15 15 14 12 11 10 7 5 7 9 10 11
8 6 9 4 5 6 4 6 5 3 4 4 6 3 4 7 4 5 4 8 20 26 29 28 33 32 28 26 25 25 24 25 28 27 24 25 22 18 17 16 16 15 15 15 14 13 11 9 7 7 8 10 11 13
3 3 4 5 7 5 6 5 7 5 4 4 4 8 7 3 5 6 3 12 21 22 28 31 32 26 24 26 23 22 25 24 24 24 23 26 25 22 20 17 17 17 17 15 14 12 12 11 9 9 10 10 10 13
5 4 4 4 9 14 5 5 10 4 5 5 5 6 5 5 6 4 6 9 11 14 17 20 21 23 21 18 19 18 19 23 25 22 20 22 20 18 18 18 17 17 15 14 13 12 12 11 11 11 11 11 11 13
3 8 9 13 7 4 4 4 5 6 4 8 9 6 6 6 3 3 6 9 11 11 11 12 13 15 16 15 16 19 19 17 18 20 18 18 17 18 15 16 17 15 14 14 15 15 13 11 11 11 11 13 13 12
2 12 16 5 4 3 3 3 4 4 10 15 7 5 5 4 5 5 7 6 6 6 6 7 8 10 11 12 14 16 19 23 25 24 22 19 18 16 15 15 17 17 17 16 13 11 11 12 12 12 13 13 13 12
8 6 5 3 3 2 2 1 2 9 8 11 5 4 3 2 6 6 5 6 6 5 6 8 13 14 16 17 17 17 17 19 21 19 18 18 16 11 12 13 13 12 11 11 11 10 10 10 10 10 10 11 12 12
9 5 4 4 3 3 2 4 7 9 7 5 4 4 3 3 4 4 5 7 7 6 8 12 12 12 13 14 15 17 16 17 16 14 14 14 14 12 10 12 13 12 12 12 11 11 10 11 11 10 11 12 12 13
4 3 3 3 3 4 5 2 2 3 2 2 2 2 3 3 2 1 3 4 5 8 8 9 10 9 8 10 8 8 9 9 13 16 16 16 14 13 13 13 14 14 12 11 10 10 10 10 10 11 12 12 13 14
8 10 9 6 4 4 3 4 3 2 2 2 2 1 1 1 2 2 2 6 9 8 9 10 9 8 8 8 9 10 11 9 8 11 16 18 17 17 16 15 14 12 10 10 10 10 10 10 11 11 12 13 14 14
Wind_Direction
279 288 292 293 297 300 298 297 296 298 307 309 311 315 319 327 342 2 355 6 28 265 268 240 237 204 178 212 250 122 139 203 187 238 280 238 205 253 299 260 266 222 245 240 254 262 268 294 328 320 300 308 306 319
268 270 277 283 292 294 298 300 297 299 307 316 316 316 316 317 319 329 17 334 341 283 244 260 239 217 221 224 222 171 333 150 220 220 214 34 275 215 231 260 206 246 214 214 219 242 287 305 301 304 303 314 321 318
275 274 266 268 274 284 290 293 297 285 277 288 299 306 312 312 311 321 322 337 355 321 300 265 286 255 227 215 207 201 211 221 218 247 335 318 259 303 245 236 260 273 280 275 300 258 289 299 295 298 313 315 317 314
280 275 271 267 262 268 277 285 287 283 268 259 256 256 260 278 292 303 315 321 355 319 284 272 277 284 246 223 210 208 216 201 222 215 236 183 243 222 254 267 281 264 291 260 266 281 284 291 311 326 321 318 312 307
282 280 276 269 263 264 260 272 279 282 277 260 245 252 260 279 285 284 300 303 271 255 299 285 273 266 260 209 210 217 223 219 209 214 196 219 254 272 265 273 260 249 246 246 272 305 314 320 324 325 317 314 311 312
279 277 275 273 268 260 259 262 265 273 275 248 250 258 273 268 266 267 15 55 245 228 285 292 290 266 225 211 216 220 219 223 229 204 202 235 250 297 268 261 243 265 266 282 306 307 313 309 311 315 311 315 321 320
278 278 275 272 269 267 256 254 260 255 268 257 241 252 251 242 227 182 200 182 137 152 281 288 288 235 209 201 195 202 208 218 219 218 227 232 245 267 239 253 257 275 283 287 288 305 318 312 312 322 322 321 322 321
275 274 274 273 270 265 260 247 253 249 265 258 242 231 233 231 241 225 210 187 206 218 209 264 269 255 198 190 188 187 187 200 217 223 222 223 236 213 252 255 277 279 272 290 309 313 304 313 318 322 323 324 324 325
273 270 269 268 269 265 259 248 241 245 248 251 221 217 208 223 232 242 225 218 216 204 226 214 214 206 179 201 153 164 182 185 227 213 215 236 207 223 240 252 264 281 273 299 310 309 317 321 320 322 325 325 321 322
274 270 265 265 267 268 264 254 237 235 234 233 196 182 205 201 201 177 205 201 202 214 224 241 197 217 174 168 164 144 188 225 248 214 189 225 252 248 248 250 259 264 284 304 317 321 324 321 322 322 322 321 322 321
273 272 266 260 258 260 258 253 245 228 225 205 196 188 188 173 166 173 210 202 188 229 223 219 203 176 185 166 173 203 184 207 241 220 203 234 246 226 245 245 244 232 263 291 299 300 305 310 315 319 321 324 323 327
266 264 263 260 255 252 248 247 237 224 229 201 188 156 155 179 154 179 210 210 206 215 192 184 186 193 163 184 192 174 224 220 249 141 230 253 252 226 180 184 192 231 266 285 287 296 307 309 317 320 322 322 326 329
265 262 258 258 256 249 244 242 234 229 240 179 177 166 157 173 181 199 197 205 200 192 174 157 140 151 144 179 193 157 212 231 225 219 232 230 179 168 176 186 211 246 268 271 289 298 303 310 318 323 323 326 326 330
261 259 256 253 253 246 237 235 233 222 213 208 168 198 196 177 219 201 208 183 195 182 152 153 136 143 152 162 179 214 209 256 224 225 232 222 193 184 187 201 226 252 261 273 284 294 302 312 319 320 326 328 327 333
258 253 252 249 244 243 235 229 230 223 214 214 204 218 204 219 217 211 218 214 160 154 148 139 111 121 139 172 206 226 213 229 219 233 230 158 170 181 195 209 232 245 258 269 279 291 300 313 317 322 327 335 330 341
253 249 246 245 239 236 232 233 225 228 220 226 236 244 231 214 229 213 196 150 143 149 142 133 157 175 176 177 191 208 219 209 231 210 225 182 178 192 203 218 233 242 251 269 277 287 294 311 316 325 326 328 348 351
247 243 241 239 234 230 227 223 225 219 214 197 207 217 240 237 216 212 196 156 156 153 163 166 184 189 134 200 207 190 217 218 213 226 199 194 196 201 209 224 233 241 252 267 275 282 291 304 308 322 322 336 337 348
238 238 237 235 227 222 222 215 222 213 231 215 227 236 233 237 248 224 188 162 162 179 180 196 163 205 189 197 203 214 226 230 227 224 208 204 206 214 221 232 235 239 259 265 272 282 294 297 307 315 322 324 332 343
234 229 229 230 219 207 200 203 210 214 218 230 227 238 237 237 230 232 182 174 181 185 175 169 214 208 207 204 227 233 213 211 218 214 213 212 218 221 230 233 233 240 257 261 271 277 288 294 299 309 315 319 327 337
229 225 224 223 208 193 188 192 190 209 192 206 230 237 226 232 219 204 182 181 180 184 196 211 217 222 216 222 226 228 212 205 204 208 212 225 221 223 231 230 238 248 252 258 270 275 281 285 294 306 318 318 326 337
224 220 218 214 199 200 199 169 182 205 191 199 212 188 214 189 198 198 179 180 188 194 209 218 227 232 232 239 231 220 223 223 218 220 234 225 224 223 218 221 234 243 250 257 264 268 270 279 289 303 311 312 318 321
201 206 191 193 182 183 192 180 168 164 170 233 178 179 168 177 190 203 183 193 219 214 220 226 229 230 232 230 227 233 245 240 234 237 237 230 218 215 223 235 242 240 246 254 256 261 265 272 284 293 301 311 310 319
181 182 178 164 155 182 140 151 148 156 179 172 154 150 186 198 189 169 207 216 224 224 225 229 231 234 240 245 242 234 236 227 221 224 226 234 232 233 223 224 230 237 242 246 249 254 259 267 275 285 298 303 305 317
173 157 157 138 138 121 145 170 146 142 147 168 166 186 179 159 163 214 242 234 229 223 227 230 234 240 238 237 233 228 229 226 218 221 225 229 228 221 229 235 234 234 233 238 245 249 255 264 274 286 289 293 309 315
141 153 139 131 137 136 136 141 154 155 156 173 177 157 159 164 203 222 236 226 224 221 221 223 228 225 228 234 238 238 230 220 214 212 218 220 223 221 227 232 230 229 228 231 236 240 246 249 251 266 281 290 300 310
105 179 189 139 155 141 153 143 172 161 135 158 174 135 160 193 209 239 226 224 227 218 220 222 226 225 228 231 232 228 214 219 223 220 218 217 221 223 226 219 220 224 222 230 241 247 247 249 257 264 282 294 302 300
139 167 174 144 146 129 121 121 133 130 167 171 166 166 177 201 222 240 220 215 219 217 219 226 230 233 238 233 224 224 220 213 218 222 218 222 224 221 215 218 222 226 223 225 232 241 250 257 266 277 289 292 296 301
107 157 148 145 130 136 126 124 148 170 165 158 153 190 193 206 237 154 187 228 222 220 213 214 223 224 218 215 210 206 202 204 194 196 196 204 211 215 217 220 223 225 227 229 235 242 245 256 270 278 282 288 297 303
125 132 123 97 110 144 173 170 188 165 159 167 178 178 197 185 172 200 210 199 188 192 188 176 152 151 161 167 171 185 192 191 189 187 194 195 202 210 208 215 218 223 227 233 236 237 248 260 266 272 279 287 296 301
145 128 106 116 103 117 66 85 100 161 159 170 154 141 150 188 191 193 183 171 164 169 157 150 148 151 156 161 161 174 190 198 203 212 206 208 217 219 214 216 215 216 217 224 235 249 260 264 268 274 286 291 295 299
128 101 81 82 85 59 82 117 123 137 126 113 106 127 150 168 162 174 175 177 179 175 168 161 156 164 163 171 182 188 195 200 201 209 213 210 213 221 218 215 223 237 226 228 237 247 254 258 265 269 271 278 285 290
98 126 128 115 118 148 118 101 92 79 102 129 122 157 152 139 102 183 192 193 185 182 186 183 181 186 187 188 201 211 225 234 222 220 224 222 217 218 220 225 233 228 233 239 246 251 254 258 261 264 269 274 282 288
91 89 104 105 131 148 161 147 119 118 114 108 95 106 124 64 110 190 186 201 192 199 218 211 209 215 221 215 214 223 235 248 236 223 224 225 224 227 233 227 223 228 239 245 247 252 254 260 269 274 279 285 290 294